Weather in Aleksandrovka

Russia / Rostov Oblast     46°47′07″N   38°59′50″E
temp.,
°C
wind,
m/s
gust,
m/s
humid.,
%
clouds,
%
prec.,
mm/h
press.,
hPa
HPBL,
m
29 may, sun
sun2900:00+15ssw12700 0.0 101410
03:00+14wnw11690 0.0 101410
06:00+15ese226963 0.0 101443
09:00+18ese236666 0.0 1015145
12:00+25se22482 0.0 10141250
15:00+26nw334684 0.0 10141690
18:00+22nw46583 0.0 1014368
21:00+18nw33660 0.0 101530
30 may, mon
mon3000:00+17nne22714 0.0 101518
03:00+16ne34840 0.0 101660
06:00+16ne37852 0.0 1016183
09:00+23ene56631 0.0 1016583
12:00+27e665144 0.0 10151408
15:00+29ese454486 0.0 10141708
18:00+28ese3455100 0.0 1014314
21:00+23ene3668100 0.0 101485
31 may, tue
tue3100:00+21e49715 0.0 1014148
03:00+19e486434 0.0 1013133
06:00+19e396892 0.0 1014183
09:00+25ese574815 0.0 1014422
12:00+30se4440100 0.0 10141158
15:00+31ese4435100 0.0 10131783
18:00+28e3650100 0.0 1012206
21:00+22ese335199 0.0 101234
1 june, wed
wed100:00+21nne334787 0.0 101323
03:00+20ne2261100 0.0 101316
06:00+20ne356349 0.0 101496
09:00+26e34485 0.0 1014431
12:00+30e33415 0.0 10141072
15:00+32ese333910 0.0 10132014
18:00+30e354823 0.0 1013287
21:00+22se3365100 1.1 101522
2 june, thu
thu200:00+20ene2260100 0.0 101411
03:00+19e1261100 0.0 101411
06:00+19nne3364100 0.0 101443
09:00+26nne124394 0.0 1015346
12:00+30nne223383 0.0 1014950
15:00+31e01310 0.0 10141615
18:00+30ese23455 0.0 1014902
21:00+22nnw01674 0.0 101515